sat.trackr.live / text

‹ back to catalog

STARLINK-35712

NORAD 66215 · 2025-244K

PAYLOAD ACTIVE UNKNOWN

§ Identity

Operator
Country
US
Launch date
2025-10-28
Launch site
AFWTR
Launch vehicle
Mass (kg)
RCS (m²)

Purposes: comms

External: N2YO · Heavens-Above · Gunter

§ Orbital elements

Epoch: 2026-05-24T23:38:33.643104Z

Period
94.10 min
Inclination
53.1581°
Eccentricity
0.0001438
Mean motion
15.30208624 rev/d
Perigee alt
474.2 km
Apogee alt
476.2 km
Semi-major
6,853.3 km
B*
3.9409e-4
RAAN
235.3119°
Arg perigee
97.0557°
Mean anomaly
263.0607°
Rev number
3,334

§ Raw data

STARLINK-357121 66215U 25244K   26144.98511161  .00011334  00000+0  39409-3 0  99952 66215  53.1581 235.3119 0001438  97.0557 263.0607 15.30208624 33346

JSON: /api/v1/satellites/66215 · /tle

For live sub-satellite position, see the globe view (requires WebGL).

§ Visibility from observer

Set your observer location to see the next 7 days of passes ≥ 10°. The values pass through the URL so the page stays shareable.

No JS? Fill the form by hand. The geolocation button needs JavaScript.